Starlink 31023

operational
NORAD ID: 58522 Int'l Des: 2023-191 Owner: SPXS Country: US Constellation: starlink
LEOCIRCULAR

About Starlink 31023

Description loading...

Live Position

Loading 3D Globe...

Upcoming Passes

Altitude History

Altitude vs Time

uPlot chart will show altitude changes over time

Two-Line Element Set

1 58522U 23191Q 25304.14221499 .00000134 00000-0 25013-4 0 9997
2 58522 43.0035 89.9360 0001343 269.3291 90.7398 15.02534377105950
Epoch: Oct 31, 2025 • Age: 16 hours

Current Status

Altitude 558.3 km
Velocity 7.59 km/s
Sub-Earth Point 12.48°N, 127.87°E
Launch Date Dec 7, 2023
Age 1.9 years
Type internet

Technical Details

Classification Payload
Mass 730.00 kg
Dry Mass 700.00 kg
Total Mass 730.00 kg
Length 0.30 m
Diameter 4.10 m
Span 29.00 m
Shape Box + pan
Manufacturer SPXS
Bus Type Starlink V2M
Phase Status In Orbit
Owner/State SPXS/US

Large Constellations

Loading constellations...